Home > Weather > Recife > Past weeks

Flag for Brazil Past Weather in Recife, Pernambuco, Brazil — Yesterday and Last 2 Weeks

Now
81 °F

Scattered clouds.


Feels Like: 85 °F
Forecast: 74 / 79 °F
Wind: 20 mph from South

Location: Recife Aeroporto

Current Time: Jul 29, 2016 at 1:06:37 PM

Latest Report: Jul 29, 2016 at 12:00 PM


Visibility: N/A

Pressure: 30.01 "Hg

Humidity: 74%

Dew Point: 72 °F

Location of RecifeLocation

Past Weather in Recife — Graph

°F

Recife Temperature Yesterday

Maximum temperature yesterday: 82 °F (at 10:00 AM)
Minimum temperature yesterday: 73 °F (at 12:00 AM)
Average temperature yesterday: 77 °F

High & Low Weather Summary for the Past Weeks

 TemperatureHumidityPressure
High84 °F (Jul 15, 10:00 AM)100% (Jul 19, 4:00 PM)30.07 "Hg (Jul 19, 4:00 PM)
Low70 °F (Jul 21, 6:00 AM)58% (Jul 21, 11:00 AM)29.89 "Hg (Jul 15, 3:00 PM)
Average78 °F78%29.99 "Hg
* Reported Jul 14 12:00 PM — Jul 29 12:00 PM, Recife, Weather by CustomWeather, © 2016

Note: Actual official high and low records may vary slightly from our data, if they occured in-between our weather recording intervals... More about our weather records

Advertising

Recife Weather History for the Previous 24 Hours

Scroll right to see more
 ConditionsComfort  
Time TempWeatherWind HumidityBarometerVisibility
12:00 PM
Fri, Jul 29
81 °FScattered clouds.20 mph74%30.01 "HgN/A
11:00 AM81 °FScattered clouds.16 mph74%30.04 "HgN/A
10:00 AM79 °FPartly sunny.13 mph70%30.07 "HgN/A
9:00 AM79 °FPartly sunny.13 mph70%30.07 "HgN/A
8:00 AM77 °FPartly sunny.6 mph79%30.04 "HgN/A
7:00 AM73 °FPartly sunny.9 mph83%30.04 "HgN/A
6:00 AM77 °FScattered clouds.8 mph69%30.01 "HgN/A
5:00 AM79 °FPassing clouds.8 mph65%30.01 "HgN/A
4:00 AM75 °FPassing clouds.10 mph78%30.01 "HgN/A
3:00 AM77 °FPassing clouds.10 mph69%29.98 "HgN/A
2:00 AM75 °FPassing clouds.8 mph74%29.98 "HgN/A
1:00 AM77 °FPassing clouds.10 mph79%30.01 "HgN/A
12:00 AM77 °FPassing clouds.14 mph74%30.01 "HgN/A
11:00 PM
Thu, Jul 28
79 °FPassing clouds.15 mph70%30.04 "HgN/A
10:00 PM79 °FPassing clouds.16 mph70%30.04 "HgN/A
9:00 PM79 °FPassing clouds.16 mph70%30.01 "HgN/A
8:00 PM79 °FPartly cloudy.16 mph70%30.01 "HgN/A
7:00 PM79 °FPartly cloudy.14 mph70%29.98 "HgN/A
6:00 PM79 °FPassing clouds.13 mph74%29.95 "HgN/A
5:00 PM77 °FScattered showers. Partly sunny.10 mph83%N/AN/A
4:00 PM81 °FScattered showers. Partly sunny.14 mph70%29.95 "HgN/A
3:00 PM79 °FBroken clouds.8 mph84%29.95 "HgN/A
2:00 PM79 °FBroken clouds.8 mph74%29.95 "HgN/A
1:00 PM75 °FLight rain. Broken clouds.18 mph94%29.98 "Hg4 mi
Weather by CustomWeather, © 2016

See weather overviewHow to use our weather pages